• Join FlightAware (Why Join?)
  • Login
  • US Flag 
02:34AM EDT


 

Airport Tracker/Info


-or-


 

Live Flight TrackerFlight Track Log ✈ EJA324 ✈ 22-Apr-2013 ✈ KSUA - KMCO

Flight Track Log - Related Links

Times and Time Zones

All times are in EDT time to prevent confusion due to time zone crossing. See the EJA324 flight status page for this flight to view local times or setup timezone preferences in your user account.

Time Position Orientation Groundspeed Altitude Reporting Facility
EDT Latitude Longitude Course Direction KTS MPH feet Rate Location/Type
01:25PM 27.1703 -80.1906 136° Southeast 171 197 2,500  Level Miami Center
01:26PM 27.1356 -80.1522 136° Southeast 170 196 4,700 1,200 Climbing Miami Center
01:27PM 27.1278 -80.2222 263° West 149 171 5,000 180 Climbing Miami Center
01:28PM 27.1617 -80.2861 301° West 224 258 5,100 1,800 Climbing Miami Center
01:29PM 27.1828 -80.3661 287° West 256 295 8,700 1,920 Climbing Miami Center
01:30PM 27.2097 -80.4581 288° West 278 320 9,000 120 Climbing Miami Center
01:31PM 27.2603 -80.5203 312° West 279 321 9,000  Level Miami Center
01:32PM 27.3258 -80.5692 326° Northwest 279 321 9,000  Level Miami Center
01:33PM 27.3853 -80.6131 327° Northwest 279 321 9,000  Level Miami Center
01:34PM 27.4019 -80.6933 283° West 254 292 9,000  Level Miami Center
01:35PM 27.4017 -80.7797 270° West 259 298 9,000 -60 Level Miami Center
01:36PM 27.4014 -80.8686 270° West 275 316 8,900 -60 Descending Miami Center
01:37PM 27.4053 -80.9531 273° West 280 322 8,900  Level Miami Center
01:38PM 27.4281 -81.0381 287° West 280 322 8,900  Level Miami Center
01:39PM 27.5050 -81.0456 355° North 227 261 8,900  Level Miami Center
01:40PM 27.5908 -81.0369 North 246 283 8,900 -180 Level Miami Center
01:42PM 27.7667 -81.0667 351° North 279 321 8,500 -240 Descending Orlando TRACON
01:43PM 27.8333 -81.0833 348° North 278 320 8,300 -240 Descending Orlando TRACON
01:44PM 27.9167 -81.1000 350° North 280 322 8,100 -180 Descending Orlando TRACON
01:45PM 27.9833 -81.1167 348° North 278 320 8,000 -180 Descending Orlando TRACON
01:47PM 28.0667 -81.1667 332° Northwest 239 275 7,800 -840 Descending Orlando TRACON
01:48PM 28.1167 -81.2000 330° Northwest 236 272 6,200 -1,740 Descending Orlando TRACON
01:49PM 28.1833 -81.2333 336° Northwest 226 260 4,400 -1,800 Descending Orlando TRACON
01:50PM 28.2333 -81.2667 330° Northwest 208 239 2,700 -1,380 Descending Orlando TRACON
01:51PM 28.2833 -81.3167 319° Northwest 206 237 1,600 -540 Descending Orlando TRACON
01:52PM 28.3333 -81.3167 360° North 193 222 1,600 -300 Level Orlando TRACON
01:53PM 28.3667 -81.3167 360° North 116 133 1,000 -660 Descending Orlando TRACON
01:53PM 28.4000 -81.3333 336° Northwest 101 116 500 -720 Descending Orlando TRACON
01:55PM 28.4294 -81.3090 41° Northeast  Level Estimated
02:02PM 28.4294 -81.3090 204° Southwest  Level Estimated